OpenBCM V1.13 (Linux)

Packet Radio Mailbox

DB0FHN

[JN59NK Nuernberg]

 Login: GUEST





  
UA9FBV > KEPS     08.10.04 06:11l 277 Lines 7264 Bytes #999 (0) @ AMSAT
BID : ORB04281.D
Read: GUEST
Subj: Orbital Elements  04281.MICROS
Path: DB0FHN<DB0RGB<OK0PPL<DB0RES<ER3KAZ<R3CR<UR7IWZ<UA9FBV
Sent: 041008/0406Z @:UA9FBV.PRM.RUS.AS #:5018 [Perm] GATEWAY $:ORB04281.D
From: UA9FBV@UA9FBV.PRM.RUS.AS
To  : KEPS@AMSAT


HR AMSAT ORBITAL ELEMENTS FOR THE MICROSATS
FROM WA5QGD FORT WORTH,TX October 7, 2004
SEND SUBSCRIBE/UNSUBSCRIBE TO majordomo@amsat.org ONLY
BID: ORB04281.D
TO ALL RADIO AMATEURS BT

Satellite: UO-14
Catalog number: 20437
Epoch time:      04281.49685789
Element set:     609
Inclination:       98.2063 deg
RA of node:       299.2564 deg
Eccentricity:    0.0009960
Arg of perigee:   223.4848 deg
Mean anomaly:     136.5567 deg
Mean motion:   14.31373913 rev/day
Decay rate:        9.7e-07 rev/day^2
Epoch rev:           76788
Checksum:              358

Satellite: AO-16
Catalog number: 20439
Epoch time:      04280.70887937
Element set:     296
Inclination:       98.2363 deg
RA of node:       313.2171 deg
Eccentricity:    0.0010054
Arg of perigee:   234.9124 deg
Mean anomaly:     125.1109 deg
Mean motion:   14.31631551 rev/day
Decay rate:        2.4e-07 rev/day^2
Epoch rev:           76782
Checksum:              285

Satellite: WO-18
Catalog number: 20441
Epoch time:      04281.49550351
Element set:     485
Inclination:       98.2509 deg
RA of node:       318.0431 deg
Eccentricity:    0.0010638
Arg of perigee:   232.6757 deg
Mean anomaly:     127.3461 deg
Mean motion:   14.31706870 rev/day
Decay rate:        2.5e-07 rev/day^2
Epoch rev:           76799
Checksum:              304

Satellite: LO-19
Catalog number: 20442
Epoch time:      04281.54384248
Element set:     233
Inclination:       98.2620 deg
RA of node:       322.1947 deg
Eccentricity:    0.0010972
Arg of perigee:   232.8373 deg
Mean anomaly:     127.1816 deg
Mean motion:   14.31878516 rev/day
Decay rate:        3.7e-07 rev/day^2
Epoch rev:           76806
Checksum:              303

Satellite: UO-22
Catalog number: 21575
Epoch time:      04281.46125198
Element set:     222
Inclination:       98.2078 deg
RA of node:       250.8522 deg
Eccentricity:    0.0008299
Arg of perigee:   127.3717 deg
Mean anomaly:     232.8240 deg
Mean motion:   14.39418550 rev/day
Decay rate:       1.10e-06 rev/day^2
Epoch rev:           69414
Checksum:              292

Satellite: KO-23
Catalog number: 22077
Epoch time:      04278.91323943
Element set:    0298
Inclination:      066.0887 deg
RA of node:       321.0617 deg
Eccentricity:    0.0009866
Arg of perigee:   315.3757 deg
Mean anomaly:     044.6469 deg
Mean motion:   12.86425654 rev/day
Decay rate:       -3.7e-07 rev/day^2
Epoch rev:           57075
Checksum:              334

Satellite: AO-27
Catalog number: 22825
Epoch time:      04280.46587801
Element set:     955
Inclination:       98.2453 deg
RA of node:       283.5513 deg
Eccentricity:    0.0007352
Arg of perigee:   297.4053 deg
Mean anomaly:      62.6382 deg
Mean motion:   14.29086854 rev/day
Decay rate:       -4.4e-07 rev/day^2
Epoch rev:           57498
Checksum:              332

Satellite: IO-26
Catalog number: 22826
Epoch time:      04281.02991026
Element set:     630
Inclination:       98.2437 deg
RA of node:       285.3696 deg
Eccentricity:    0.0008326
Arg of perigee:   297.0723 deg
Mean anomaly:      62.9606 deg
Mean motion:   14.29324428 rev/day
Decay rate:        2.8e-07 rev/day^2
Epoch rev:           57512
Checksum:              311

Satellite: KO-25
Catalog number: 22828
Epoch time:      04280.59312312
Element set:     891
Inclination:       98.2355 deg
RA of node:       285.1889 deg
Eccentricity:    0.0008816
Arg of perigee:   267.1249 deg
Mean anomaly:      92.8904 deg
Mean motion:   14.29643776 rev/day
Decay rate:       -2.3e-07 rev/day^2
Epoch rev:           54328
Checksum:              334

Satellite: TO-31
Catalog number: 25396
Epoch time:      04281.53699582
Element set:      82
Inclination:       98.5642 deg
RA of node:       349.9526 deg
Eccentricity:    0.0002601
Arg of perigee:   172.8241 deg
Mean anomaly:     187.2975 deg
Mean motion:   14.23636018 rev/day
Decay rate:       -4.3e-07 rev/day^2
Epoch rev:           32446
Checksum:              318

Satellite: GO-32
Catalog number: 25397
Epoch time:      04281.51699222
Element set:     576
Inclination:       98.5553 deg
RA of node:       347.9166 deg
Eccentricity:    0.0001329
Arg of perigee:   168.8543 deg
Mean anomaly:     191.2665 deg
Mean motion:   14.23053762 rev/day
Decay rate:       1.11e-06 rev/day^2
Epoch rev:           32439
Checksum:              318

Satellite: UO-36
Catalog number: 25693
Epoch time:      04281.76515492
Element set:     521
Inclination:       64.5609 deg
RA of node:       338.8614 deg
Eccentricity:    0.0045634
Arg of perigee:   244.5806 deg
Mean anomaly:     115.0571 deg
Mean motion:   14.78392268 rev/day
Decay rate:       1.34e-06 rev/day^2
Epoch rev:           29450
Checksum:              318

Satellite: SO-41
Catalog number: 26545
Epoch time:      04280.72039916
Element set:     895
Inclination:       64.5608 deg
RA of node:       358.2098 deg
Eccentricity:    0.0021422
Arg of perigee:   351.7475 deg
Mean anomaly:       8.3309 deg
Mean motion:   14.79870585 rev/day
Decay rate:       3.87e-06 rev/day^2
Epoch rev:           21741
Checksum:              327

Satellite: MO-46
Catalog number: 26548
Epoch time:      04281.44525122
Element set:     996
Inclination:       64.5602 deg
RA of node:       341.7450 deg
Eccentricity:    0.0021943
Arg of perigee:   334.1408 deg
Mean anomaly:      25.8521 deg
Mean motion:   14.82423763 rev/day
Decay rate:       2.55e-06 rev/day^2
Epoch rev:           21781
Checksum:              292

Satellite: SO-42
Catalog number: 26549
Epoch time:      04279.70756341
Element set:     964
Inclination:       64.5554 deg
RA of node:         8.5726 deg
Eccentricity:    0.0021267
Arg of perigee:     5.2599 deg
Mean anomaly:     354.8727 deg
Mean motion:   14.78760767 rev/day
Decay rate:       1.47e-06 rev/day^2
Epoch rev:           21712
Checksum:              335

Satellite: NO-44
Catalog number: 26931
Epoch time:      04281.85901939
Element set:     868
Inclination:       67.0534 deg
RA of node:       157.6450 deg
Eccentricity:    0.0006846
Arg of perigee:   269.9671 deg
Mean anomaly:      90.0593 deg
Mean motion:   14.29325960 rev/day
Decay rate:        1.1e-07 rev/day^2
Epoch rev:           15770
Checksum:              327

Satellite: AO-49
Catalog number: 27605
Epoch time:      04281.74050687
Element set:     555
Inclination:       64.5580 deg
RA of node:       182.8219 deg
Eccentricity:    0.0083460
Arg of perigee:   289.3394 deg
Mean anomaly:      69.8705 deg
Mean motion:   14.71940410 rev/day
Decay rate:       2.40e-06 rev/day^2
Epoch rev:            9669
Checksum:              330

Satellite: SO-50
Catalog number: 27607
Epoch time:      04281.24823242
Element set:     536
Inclination:       64.5586 deg
RA of node:       188.5442 deg
Eccentricity:    0.0084508
Arg of perigee:   288.3402 deg
Mean anomaly:      70.8522 deg
Mean motion:   14.70738093 rev/day
Decay rate:       3.27e-06 rev/day^2
Epoch rev:            9653
Checksum:              312

Satellite: AO-51
Catalog number: 28375
Epoch time:      04281.20923119
Element set:      78
Inclination:       98.2478 deg
RA of node:       347.3230 deg
Eccentricity:    0.0083362
Arg of perigee:   275.2927 deg
Mean anomaly:      83.8751 deg
Mean motion:   14.40393124 rev/day
Decay rate:        8.1e-07 rev/day^2
Epoch rev:            1419
Checksum:              302



Read previous mail | Read next mail


 18.06.2026 03:48:01lGo back Go up